AAL443 KCLT-KDCA

Flight info

Callsign AAL443
Flight time 0h 53m
Altitude 27000
Route KILNS5 AUDII WAVES CAPSS4
Aircraft A319/M-SDE3FGHIRWY/LB1

Departure

Time 2026-04-25 21:03
Airport Charlotte Douglas International Airport (KCLT)

Arrival

Time 2026-04-25 21:56
Airport Ronald Reagan Washington National Airport (KDCA)
Time Latitude Longitude Altitude Speed Heading
2026-04-25 20:44 35.21822 -80.94165 731 ft 0 kts 253°
2026-04-25 20:54 35.21824 -80.94156 732 ft 4 kts 253°
2026-04-25 20:54 35.21832 -80.94124 732 ft 4 kts 253°
2026-04-25 20:54 35.21838 -80.94096 732 ft 4 kts 261°
2026-04-25 20:55 35.21838 -80.94064 732 ft 4 kts 293°
2026-04-25 20:55 35.21823 -80.94042 730 ft 4 kts 342°
2026-04-25 20:55 35.21797 -80.94040 731 ft 4 kts 17°
2026-04-25 20:55 35.21776 -80.94056 731 ft 4 kts 48°
2026-04-25 20:56 35.21761 -80.94076 732 ft 0 kts 48°
2026-04-25 20:59 35.21769 -80.94066 732 ft 3 kts 48°
2026-04-25 20:59 35.21791 -80.94036 731 ft 11 kts 48°
2026-04-25 21:00 35.21868 -80.93910 732 ft 14 kts 86°
2026-04-25 21:00 35.21868 -80.93870 732 ft 14 kts 79°
2026-04-25 21:00 35.22065 -80.93719 731 ft 17 kts 355°
2026-04-25 21:01 35.22186 -80.93730 733 ft 18 kts 356°
2026-04-25 21:01 35.22316 -80.93741 733 ft 19 kts 356°
2026-04-25 21:01 35.22451 -80.93753 734 ft 15 kts 356°
2026-04-25 21:01 35.22506 -80.93670 735 ft 13 kts 97°
2026-04-25 21:02 35.22434 -80.93616 736 ft 14 kts 174°
2026-04-25 21:02 35.22322 -80.93603 736 ft 28 kts 175°
2026-04-25 21:02 35.21837 -80.93564 736 ft 108 kts 176°
2026-04-25 21:02 35.20857 -80.93482 802 ft 160 kts 180°
2026-04-25 21:03 35.19759 -80.93365 1520 ft 158 kts 177°
2026-04-25 21:03 35.18736 -80.92855 2302 ft 165 kts 143°
2026-04-25 21:03 35.18142 -80.91591 2856 ft 189 kts 99°
2026-04-25 21:03 35.18413 -80.89948 3335 ft 209 kts 66°
2026-04-25 21:04 35.19022 -80.88255 3849 ft 229 kts 64°
2026-04-25 21:04 35.19752 -80.86414 4419 ft 252 kts 64°
2026-04-25 21:04 35.20530 -80.84376 4979 ft 277 kts 66°
2026-04-25 21:04 35.21322 -80.82170 5840 ft 288 kts 67°
2026-04-25 21:05 35.22118 -80.79900 6836 ft 293 kts 68°
2026-04-25 21:05 35.22922 -80.77588 7827 ft 297 kts 68°
2026-04-25 21:05 35.23731 -80.75251 8847 ft 301 kts 69°
2026-04-25 21:05 35.24557 -80.72877 9854 ft 305 kts 68°
2026-04-25 21:06 35.25406 -80.70444 10500 ft 322 kts 69°
2026-04-25 21:06 35.26317 -80.67833 10884 ft 346 kts 68°
2026-04-25 21:06 35.27285 -80.65060 11450 ft 360 kts 68°
2026-04-25 21:06 35.27955 -80.63147 11981 ft 365 kts 68°
2026-04-25 21:07 35.29294 -80.59325 13042 ft 373 kts 68°
2026-04-25 21:07 35.30324 -80.56388 13828 ft 378 kts 68°
2026-04-25 21:07 35.31367 -80.53410 14548 ft 383 kts 68°
2026-04-25 21:07 35.32421 -80.50398 15370 ft 387 kts 67°
2026-04-25 21:08 35.33470 -80.47341 16162 ft 392 kts 68°
2026-04-25 21:08 35.34467 -80.44214 16966 ft 397 kts 69°
2026-04-25 21:08 35.35434 -80.41016 17709 ft 402 kts 70°
2026-04-25 21:08 35.36387 -80.37781 18386 ft 407 kts 70°
2026-04-25 21:09 35.38335 -80.31170 19608 ft 417 kts 70°
2026-04-25 21:09 35.39342 -80.27811 20200 ft 422 kts 70°
2026-04-25 21:09 35.40367 -80.24420 20824 ft 428 kts 70°
2026-04-25 21:10 35.41410 -80.20974 21456 ft 433 kts 70°
2026-04-25 21:10 35.42462 -80.17500 22035 ft 438 kts 70°
2026-04-25 21:10 35.43529 -80.13980 22580 ft 443 kts 70°
2026-04-25 21:10 35.44614 -80.10424 23117 ft 448 kts 70°
2026-04-25 21:11 35.45734 -80.06781 23611 ft 453 kts 69°
2026-04-25 21:11 35.46850 -80.03150 24059 ft 457 kts 70°
2026-04-25 21:11 35.47972 -79.99487 24510 ft 461 kts 70°
2026-04-25 21:11 35.49099 -79.95791 24947 ft 464 kts 70°
2026-04-25 21:12 35.50229 -79.92073 25410 ft 467 kts 70°
2026-04-25 21:12 35.51371 -79.88320 25865 ft 470 kts 70°
2026-04-25 21:12 35.52518 -79.84548 26318 ft 474 kts 70°
2026-04-25 21:12 35.53280 -79.82031 26610 ft 476 kts 70°
2026-04-25 21:13 35.54841 -79.76934 26842 ft 478 kts 69°
2026-04-25 21:13 35.56035 -79.73113 26866 ft 479 kts 69°
2026-04-25 21:13 35.57241 -79.69297 26865 ft 480 kts 69°
2026-04-25 21:13 35.58447 -79.65482 26848 ft 480 kts 69°
2026-04-25 21:14 35.59652 -79.61655 26851 ft 480 kts 69°
2026-04-25 21:14 35.60848 -79.57829 26850 ft 480 kts 69°
2026-04-25 21:14 35.62038 -79.54003 26851 ft 480 kts 69°
2026-04-25 21:14 35.63223 -79.50164 26851 ft 480 kts 69°
2026-04-25 21:15 35.64404 -79.46333 26850 ft 480 kts 69°
2026-04-25 21:15 35.65588 -79.42498 26839 ft 480 kts 69°
2026-04-25 21:15 35.66774 -79.38660 26845 ft 479 kts 69°
2026-04-25 21:15 35.67959 -79.34834 26850 ft 479 kts 69°
2026-04-25 21:16 35.69288 -79.31085 26848 ft 478 kts 61°
2026-04-25 21:16 35.71047 -79.27634 26848 ft 476 kts 52°
2026-04-25 21:16 35.73210 -79.24570 26834 ft 473 kts 42°
2026-04-25 21:16 35.75718 -79.21976 26833 ft 470 kts 33°
2026-04-25 21:17 35.78355 -79.19591 26842 ft 470 kts 34°
2026-04-25 21:17 35.81018 -79.17164 26835 ft 471 kts 34°
2026-04-25 21:17 35.83613 -79.14789 26827 ft 471 kts 34°
2026-04-25 21:17 35.86239 -79.12375 26822 ft 471 kts 34°
2026-04-25 21:18 35.88860 -79.09961 26815 ft 471 kts 34°
2026-04-25 21:18 35.91485 -79.07542 26813 ft 471 kts 34°
2026-04-25 21:18 35.94112 -79.05124 26809 ft 471 kts 34°
2026-04-25 21:18 35.96739 -79.02707 26812 ft 471 kts 34°
2026-04-25 21:19 35.99358 -79.00293 26814 ft 470 kts 34°
2026-04-25 21:19 36.01980 -78.97877 26824 ft 470 kts 34°
2026-04-25 21:19 36.04633 -78.95431 26818 ft 470 kts 34°
2026-04-25 21:19 36.07254 -78.93013 26830 ft 469 kts 34°
2026-04-25 21:20 36.09868 -78.90596 26831 ft 469 kts 34°
2026-04-25 21:20 36.10716 -78.89810 26832 ft 469 kts 34°
2026-04-25 21:20 36.15063 -78.85792 26827 ft 469 kts 34°
2026-04-25 21:20 36.17711 -78.83344 26827 ft 469 kts 34°
2026-04-25 21:21 36.20291 -78.80954 26826 ft 469 kts 34°
2026-04-25 21:21 36.22894 -78.78515 26839 ft 470 kts 35°
2026-04-25 21:21 36.25517 -78.76008 26829 ft 470 kts 35°
2026-04-25 21:21 36.28089 -78.73511 26805 ft 470 kts 36°
2026-04-25 21:22 36.30660 -78.70998 26803 ft 471 kts 36°
2026-04-25 21:22 36.33231 -78.68485 26803 ft 471 kts 36°
2026-04-25 21:22 36.35806 -78.65983 26798 ft 470 kts 35°
2026-04-25 21:22 36.38386 -78.63487 26803 ft 470 kts 35°
2026-04-25 21:23 36.40964 -78.60997 26805 ft 469 kts 35°
2026-04-25 21:23 36.43541 -78.58511 26807 ft 469 kts 35°
2026-04-25 21:23 36.46118 -78.56023 26818 ft 469 kts 35°
2026-04-25 21:23 36.48691 -78.53532 26816 ft 469 kts 35°
2026-04-25 21:24 36.51262 -78.51040 26815 ft 469 kts 35°
2026-04-25 21:24 36.53832 -78.48544 26812 ft 469 kts 35°
2026-04-25 21:24 36.56398 -78.46046 26828 ft 469 kts 35°
2026-04-25 21:24 36.58966 -78.43543 26830 ft 469 kts 35°
2026-04-25 21:25 36.61531 -78.41044 26828 ft 468 kts 35°
2026-04-25 21:25 36.64079 -78.38559 26829 ft 468 kts 35°
2026-04-25 21:25 36.66660 -78.36043 26843 ft 468 kts 35°
2026-04-25 21:25 36.69227 -78.33541 26838 ft 468 kts 35°
2026-04-25 21:26 36.71787 -78.31042 26833 ft 468 kts 35°
2026-04-25 21:26 36.74357 -78.28532 26829 ft 469 kts 35°
2026-04-25 21:26 36.76916 -78.26022 26834 ft 469 kts 35°
2026-04-25 21:26 36.79477 -78.23505 26834 ft 469 kts 35°
2026-04-25 21:27 36.82043 -78.20985 26836 ft 469 kts 35°
2026-04-25 21:27 36.84605 -78.18471 26834 ft 469 kts 35°
2026-04-25 21:27 36.87170 -78.15958 26831 ft 469 kts 35°
2026-04-25 21:27 36.89738 -78.13444 26835 ft 469 kts 35°
2026-04-25 21:28 36.92306 -78.10925 26811 ft 469 kts 35°
2026-04-25 21:28 36.94868 -78.08405 26809 ft 469 kts 35°
2026-04-25 21:28 36.97428 -78.05880 26806 ft 469 kts 35°
2026-04-25 21:28 36.99989 -78.03347 26804 ft 469 kts 36°
2026-04-25 21:29 37.02547 -78.00814 26804 ft 469 kts 36°
2026-04-25 21:29 37.05106 -77.98282 26803 ft 469 kts 35°
2026-04-25 21:29 37.07669 -77.95749 26802 ft 469 kts 35°
2026-04-25 21:29 37.10229 -77.93219 26819 ft 469 kts 35°
2026-04-25 21:30 37.12785 -77.90689 26818 ft 468 kts 35°
2026-04-25 21:30 37.15338 -77.88157 26821 ft 468 kts 35°
2026-04-25 21:30 37.17061 -77.86444 26823 ft 468 kts 35°
2026-04-25 21:30 37.18748 -77.84769 26825 ft 467 kts 35°
2026-04-25 21:31 37.22157 -77.81384 26831 ft 467 kts 35°
2026-04-25 21:31 37.24707 -77.78844 26700 ft 468 kts 35°
2026-04-25 21:31 37.27252 -77.76307 26460 ft 467 kts 35°
2026-04-25 21:31 37.29800 -77.73769 26213 ft 468 kts 35°
2026-04-25 21:32 37.32348 -77.71229 25976 ft 468 kts 36°
2026-04-25 21:32 37.34891 -77.68691 25734 ft 467 kts 36°
2026-04-25 21:32 37.37431 -77.66153 25495 ft 466 kts 36°
2026-04-25 21:32 37.39961 -77.63618 25252 ft 464 kts 36°
2026-04-25 21:33 37.42482 -77.61090 25008 ft 462 kts 36°
2026-04-25 21:33 37.44988 -77.58577 24786 ft 460 kts 36°
2026-04-25 21:33 37.47475 -77.56081 24136 ft 457 kts 36°
2026-04-25 21:33 37.49959 -77.53588 23396 ft 455 kts 36°
2026-04-25 21:34 37.52425 -77.51111 22621 ft 452 kts 36°
2026-04-25 21:34 37.54872 -77.48651 22011 ft 447 kts 36°
2026-04-25 21:34 37.57309 -77.46335 21847 ft 430 kts 30°
2026-04-25 21:34 37.59905 -77.44633 21704 ft 414 kts 19°
2026-04-25 21:35 37.62612 -77.43562 21334 ft 404 kts 10°
2026-04-25 21:35 37.65327 -77.42733 20934 ft 400 kts 10°
2026-04-25 21:35 37.68018 -77.41910 20539 ft 396 kts 10°
2026-04-25 21:35 37.70689 -77.41091 20150 ft 394 kts 10°
2026-04-25 21:36 37.73339 -77.40276 19763 ft 391 kts 10°
2026-04-25 21:36 37.75979 -77.39462 19379 ft 389 kts 10°
2026-04-25 21:36 37.78598 -77.38653 18996 ft 387 kts 10°
2026-04-25 21:36 37.81206 -77.37847 18617 ft 385 kts 10°
2026-04-25 21:37 37.83800 -77.37049 18284 ft 383 kts 11°
2026-04-25 21:37 37.85508 -77.36523 18015 ft 381 kts 11°
2026-04-25 21:37 37.88948 -77.35460 17500 ft 379 kts 11°
2026-04-25 21:37 37.91502 -77.34669 17120 ft 377 kts 11°
2026-04-25 21:38 37.94042 -77.33884 16763 ft 375 kts 11°
2026-04-25 21:38 37.96575 -77.33101 16395 ft 373 kts 11°
2026-04-25 21:38 37.99087 -77.32327 16039 ft 370 kts 11°
2026-04-25 21:38 38.01573 -77.31561 15683 ft 366 kts 11°
2026-04-25 21:39 38.04042 -77.30798 15328 ft 364 kts 11°
2026-04-25 21:39 38.06499 -77.30040 14980 ft 362 kts 11°
2026-04-25 21:39 38.08940 -77.29284 14623 ft 361 kts 11°
2026-04-25 21:39 38.11374 -77.28525 14271 ft 359 kts 11°
2026-04-25 21:40 38.13763 -77.27777 13922 ft 358 kts 12°
2026-04-25 21:40 38.16202 -77.27010 13549 ft 356 kts 12°
2026-04-25 21:40 38.18604 -77.26253 13190 ft 354 kts 12°
2026-04-25 21:40 38.20987 -77.25482 12858 ft 352 kts 12°
2026-04-25 21:41 38.23340 -77.24637 12596 ft 350 kts 13°
2026-04-25 21:41 38.25666 -77.23752 12323 ft 349 kts 13°
2026-04-25 21:41 38.27985 -77.22847 12039 ft 347 kts 14°
2026-04-25 21:41 38.30293 -77.21943 11771 ft 347 kts 14°
2026-04-25 21:42 38.32600 -77.21047 11506 ft 346 kts 14°
2026-04-25 21:42 38.34904 -77.20160 11236 ft 345 kts 14°
2026-04-25 21:42 38.37196 -77.19289 10967 ft 343 kts 14°
2026-04-25 21:42 38.39478 -77.18422 10866 ft 342 kts 14°
2026-04-25 21:43 38.41760 -77.17547 10782 ft 342 kts 14°
2026-04-25 21:43 38.44036 -77.16668 10658 ft 342 kts 14°
2026-04-25 21:43 38.46311 -77.15787 10552 ft 341 kts 14°
2026-04-25 21:43 38.48581 -77.14907 10448 ft 341 kts 14°
2026-04-25 21:44 38.50848 -77.14031 10328 ft 340 kts 14°
2026-04-25 21:44 38.53071 -77.13171 10213 ft 327 kts 14°
2026-04-25 21:44 38.57282 -77.11540 9892 ft 308 kts 14°
2026-04-25 21:45 38.59312 -77.10752 9697 ft 304 kts 14°
2026-04-25 21:45 38.60651 -77.10234 9511 ft 302 kts 14°
2026-04-25 21:45 38.63332 -77.09204 9105 ft 300 kts 14°
2026-04-25 21:45 38.65322 -77.08438 8802 ft 298 kts 14°
2026-04-25 21:46 38.67296 -77.07675 8508 ft 296 kts 14°
2026-04-25 21:46 38.69283 -77.07061 8204 ft 291 kts
2026-04-25 21:46 38.71341 -77.06851 7910 ft 289 kts
2026-04-25 21:46 38.73314 -77.06659 7615 ft 287 kts
2026-04-25 21:47 38.75293 -77.06552 7323 ft 283 kts 353°
2026-04-25 21:47 38.77191 -77.07068 7050 ft 276 kts 336°
2026-04-25 21:47 38.78875 -77.08197 6766 ft 272 kts 324°
2026-04-25 21:47 38.80459 -77.09512 6493 ft 270 kts 324°
2026-04-25 21:48 38.82031 -77.10805 6211 ft 269 kts 324°
2026-04-25 21:48 38.83544 -77.12186 5925 ft 266 kts 316°
2026-04-25 21:48 38.84887 -77.13836 5439 ft 267 kts 314°
2026-04-25 21:48 38.86237 -77.15519 5006 ft 266 kts 314°
2026-04-25 21:49 38.87554 -77.17165 4580 ft 264 kts 315°
2026-04-25 21:49 38.88856 -77.18791 4100 ft 260 kts 315°
2026-04-25 21:49 38.90161 -77.20419 3645 ft 263 kts 314°
2026-04-25 21:49 38.91478 -77.22062 3256 ft 263 kts 314°
2026-04-25 21:50 38.92756 -77.23653 3203 ft 249 kts 314°
2026-04-25 21:50 38.93983 -77.25146 3104 ft 239 kts 319°
2026-04-25 21:50 38.95426 -77.26107 3000 ft 229 kts 345°
2026-04-25 21:50 38.96475 -77.26261 2970 ft 221 kts
2026-04-25 21:51 38.98336 -77.25499 2908 ft 211 kts 35°
2026-04-25 21:51 38.99359 -77.24177 2834 ft 208 kts 59°
2026-04-25 21:51 38.99888 -77.22455 2749 ft 204 kts 84°
2026-04-25 21:51 38.99861 -77.20693 2716 ft 194 kts 106°
2026-04-25 21:52 38.99349 -77.19101 2725 ft 193 kts 126°
2026-04-25 21:52 38.98470 -77.17832 2708 ft 189 kts 137°
2026-04-25 21:52 38.97534 -77.16640 2710 ft 190 kts 136°
2026-04-25 21:52 38.96594 -77.15442 2712 ft 190 kts 136°
2026-04-25 21:53 38.95622 -77.14288 2621 ft 192 kts 140°
2026-04-25 21:53 38.94594 -77.13143 2324 ft 197 kts 139°
2026-04-25 21:53 38.93557 -77.12016 2038 ft 194 kts 140°
2026-04-25 21:53 38.92383 -77.11179 1789 ft 192 kts 150°
2026-04-25 21:54 38.91266 -77.10337 1509 ft 179 kts 135°
2026-04-25 21:54 38.90591 -77.09042 1287 ft 163 kts 108°
2026-04-25 21:54 38.90267 -77.07746 1086 ft 145 kts 112°
2026-04-25 21:54 38.89677 -77.06724 893 ft 131 kts 130°
2026-04-25 21:55 38.89273 -77.06173 775 ft 127 kts 129°
2026-04-25 21:55 38.88475 -77.05072 562 ft 123 kts 128°
2026-04-25 21:55 38.88069 -77.04515 451 ft 121 kts 129°
2026-04-25 21:55 38.87322 -77.03996 292 ft 128 kts 160°
2026-04-25 21:56 38.86403 -77.03903 126 ft 131 kts 170°
2026-04-25 21:56 38.85780 -77.03849 40 ft 130 kts 169°
2026-04-25 21:56 38.84782 -77.03725 24 ft 80 kts 175°
2026-04-25 21:56 38.84456 -77.03699 24 ft 19 kts 191°
2026-04-25 21:57 38.84386 -77.03792 28 ft 15 kts 266°
2026-04-25 21:57 38.84466 -77.03849 26 ft 16 kts 356°
2026-04-25 21:57 38.84587 -77.03859 24 ft 18 kts 356°
2026-04-25 21:57 38.84716 -77.03873 26 ft 19 kts 355°
2026-04-25 21:58 38.84860 -77.03888 21 ft 22 kts 355°
2026-04-25 21:58 38.85018 -77.03904 21 ft 21 kts 355°
2026-04-25 21:58 38.85163 -77.03918 22 ft 21 kts 355°
2026-04-25 21:58 38.85316 -77.03934 22 ft 22 kts 355°
2026-04-25 21:59 38.85462 -77.03948 27 ft 19 kts 356°
2026-04-25 21:59 38.85554 -77.03990 27 ft 14 kts 277°
2026-04-25 21:59 38.85537 -77.04085 27 ft 8 kts 251°
2026-04-25 22:00 38.85549 -77.04157 27 ft 3 kts 330°
2026-04-25 22:00 38.85568 -77.04170 27 ft 3 kts 333°
2026-04-25 22:00 38.85569 -77.04171 27 ft 0 kts 333°